CW3783 Weather Reports


Display with metric or nautical units.
time (UTC)temp
F
wind
direction
speed
MPH
gust
MPH
rain 1hr
in
rain 24hr
in
rain mn
in
humidity
%
barometer
mb
20260831215804 84 293 0.0 1.0 0.00 0.07 0.00 69 1016.6
20260831215306 84 293 0.0 1.0 0.00 0.07 0.00 68 1016.6
20260831214804 84 293 0.0 0.0 0.00 0.07 0.00 67 1016.5
20260831214304 84 293 0.0 2.0 0.00 0.07 0.00 67 1016.5
20260831213804 84 310 0.0 3.0 0.00 0.07 0.00 67 1016.5
20260831213304 84 0 0.0 2.0 0.00 0.07 0.00 67 1016.5
20260831212804 84 1 1.0 2.0 0.00 0.07 0.00 67 1016.4
20260831212306 84 302 1.0 3.0 0.00 0.07 0.00 68 1016.3
20260831211804 84 324 0.0 1.0 0.00 0.07 0.00 67 1016.4
20260831211304 84 324 0.0 2.0 0.00 0.07 0.00 67 1016.4
20260831210805 84 315 2.0 3.0 0.00 0.07 0.00 67 1016.5
20260831210304 84 4 2.0 3.0 0.00 0.07 0.00 67 1016.4
20260831205804 84 9 3.0 3.0 0.00 0.07 0.00 67 1016.4
20260831205305 84 11 3.0 6.0 0.00 0.07 0.00 66 1016.5
20260831204804 84 2 1.0 5.0 0.00 0.07 0.00 67 1016.5
20260831204304 84 11 3.0 5.0 0.00 0.07 0.00 67 1016.5
20260831203804 84 352 1.0 3.0 0.00 0.07 0.00 68 1016.6
20260831203304 84 358 3.0 3.0 0.00 0.07 0.00 68 1016.6
20260831202804 84 14 1.0 3.0 0.00 0.07 0.00 67 1016.5
20260831201304 84 350 2.0 3.0 0.00 0.07 0.00 67 1016.6
20260831200803 84 349 1.0 3.0 0.00 0.07 0.00 67 1016.6
20260831200304 84 7 2.0 3.0 0.00 0.07 0.00 67 1016.6
20260831195803 84 57 0.0 3.0 0.00 0.07 0.00 67 1016.7
20260831195306 84 57 1.0 3.0 0.00 0.07 0.00 67 1016.7
20260831194805 84 57 0.0 0.0 0.00 0.07 0.00 67 1016.7
20260831193803 84 62 0.0 1.0 0.00 0.07 0.00 66 1016.8
20260831193304 84 62 1.0 2.0 0.00 0.07 0.00 66 1016.8
20260831192804 84 13 0.0 1.0 0.00 0.07 0.00 67 1016.9
20260831191805 84 220 1.0 2.0 0.00 0.07 0.00 67 1017.0
20260831191303 84 86 1.0 3.0 0.00 0.07 0.00 66 1017.1
20260831190803 84 74 2.0 3.0 0.00 0.07 0.00 66 1017.2
20260831190303 84 6 1.0 3.0 0.00 0.07 0.00 67 1017.2
20260831185306 84 67 3.0 5.0 0.00 0.07 0.00 66 1017.3
20260831184804 84 27 2.0 3.0 0.00 0.07 0.00 66 1017.4
20260831183804 84 100 0.0 3.0 0.00 0.07 0.00 66 1017.4
20260831183303 84 37 2.0 3.0 0.00 0.07 0.00 67 1017.4
20260831182305 84 18 2.0 3.0 0.00 0.07 0.00 66 1017.4
20260831181803 84 23 0.0 2.0 0.00 0.07 0.00 66 1017.4
20260831181303 84 87 2.0 3.0 0.00 0.07 0.00 66 1017.3
20260831180804 84 136 3.0 5.0 0.00 0.07 0.00 66 1017.4
20260831180304 84 153 3.0 5.0 0.00 0.07 0.00 66 1017.3
20260831175804 84 64 1.0 3.0 0.00 0.07 0.00 66 1017.4
20260831175306 84 45 2.0 3.0 0.00 0.07 0.00 66 1017.5
20260831174804 84 137 4.0 6.0 0.00 0.07 0.00 66 1017.5
20260831174304 84 79 3.0 7.0 0.00 0.07 0.00 66 1017.5
20260831173804 84 57 2.0 7.0 0.00 0.07 0.00 65 1017.5
20260831172306 85 96 6.0 9.0 0.00 0.07 0.00 65 1017.5
20260831171804 85 121 3.0 7.0 0.00 0.07 0.00 64 1017.6
20260831171304 85 105 4.0 8.0 0.00 0.07 0.00 63 1017.7
20260831170803 85 144 3.0 10.0 0.00 0.07 0.00 62 1017.7
20260831170304 85 92 3.0 7.0 0.00 0.07 0.00 62 1017.7
20260831165305 85 180 4.0 8.0 0.00 0.07 0.00 64 1017.8
20260831164804 85 125 5.0 10.0 0.00 0.07 0.00 62 1017.8
20260831163804 85 116 8.0 12.0 0.00 0.07 0.00 62 1017.8
20260831163304 85 114 7.0 12.0 0.00 0.07 0.00 65 1017.8
20260831162804 85 129 1.0 8.0 0.00 0.07 0.00 62 1018.0
20260831162306 85 158 5.0 9.0 0.00 0.07 0.00 63 1018.0
20260831161805 85 109 3.0 9.0 0.00 0.07 0.00 64 1018.0
20260831161304 85 139 4.0 10.0 0.00 0.07 0.00 65 1017.9
20260831160804 84 124 7.0 13.0 0.00 0.07 0.00 65 1017.8
20260831160304 84 101 3.0 9.0 0.00 0.07 0.00 64 1017.9
20260831155803 84 132 7.0 13.0 0.00 0.07 0.00 64 1017.9
20260831154804 83 75 6.0 10.0 0.00 0.07 0.00 69 1018.1
20260831154303 83 72 7.0 13.0 0.00 0.07 0.00 68 1018.1
20260831153803 83 97 7.0 12.0 0.00 0.07 0.00 70 1018.0
20260831153303 83 109 7.0 10.0 0.00 0.07 0.00 71 1018.0
20260831152804 82 73 6.0 10.0 0.00 0.07 0.00 71 1018.1
20260831145804 80 76 6.0 10.0 0.00 0.07 0.00 76 1018.1
20260831145306 80 82 3.0 10.0 0.00 0.07 0.00 77 1018.1
20260831144304 80 107 7.0 10.0 0.00 0.07 0.00 76 1018.2
20260831143804 80 54 7.0 12.0 0.00 0.07 0.00 77 1018.1
20260831143303 80 72 4.0 12.0 0.00 0.07 0.00 78 1018.1
20260831142306 79 101 9.0 12.0 0.00 0.07 0.00 78 1018.1
20260831141804 79 68 7.0 12.0 0.00 0.07 0.00 78 1018.1
20260831141304 79 83 5.0 10.0 0.00 0.07 0.00 78 1018.1
20260831140804 78 82 6.0 10.0 0.00 0.07 0.00 80 1018.1
20260831140304 78 102 6.0 10.0 0.00 0.07 0.00 80 1018.0
20260831135804 77 128 3.0 10.0 0.00 0.07 0.00 80 1017.9
20260831135306 77 86 3.0 7.0 0.00 0.07 0.00 81 1018.0
20260831134804 77 95 3.0 8.0 0.00 0.07 0.00 81 1018.2
20260831134304 77 62 3.0 7.0 0.00 0.07 0.00 81 1018.0
20260831133804 77 107 3.0 8.0 0.00 0.07 0.00 81 1018.0
20260831133304 77 70 4.0 8.0 0.00 0.07 0.00 81 1018.1
20260831132306 77 79 3.0 8.0 0.00 0.07 0.00 81 1018.2
20260831131804 77 81 4.0 8.0 0.00 0.07 0.00 81 1018.1
20260831131304 77 96 3.0 8.0 0.00 0.07 0.00 81 1018.1
20260831130804 77 70 5.0 9.0 0.00 0.07 0.00 81 1018.2
20260831130304 77 82 7.0 12.0 0.00 0.07 0.00 82 1018.1
20260831125803 77 63 5.0 10.0 0.00 0.07 0.00 83 1018.0
20260831125306 76 72 3.0 9.0 0.00 0.07 0.00 84 1017.9
20260831124804 76 77 4.0 9.0 0.00 0.07 0.00 85 1017.8
20260831124304 76 79 6.0 12.0 0.00 0.07 0.00 87 1017.8
20260831123804 76 69 5.0 8.0 0.00 0.07 0.00 89 1017.7
20260831123304 76 62 2.0 6.0 0.00 0.07 0.00 90 1017.7
20260831122306 76 70 3.0 5.0 0.00 0.07 0.00 92 1017.7
20260831121804 76 62 3.0 5.0 0.00 0.07 0.00 93 1017.7
20260831121304 75 33 2.0 3.0 0.00 0.07 0.00 93 1017.7
20260831120804 75 54 1.0 3.0 0.00 0.07 0.00 94 1017.6
20260831120304 75 54 1.0 5.0 0.00 0.07 0.00 94 1017.6
20260831115804 75 44 2.0 5.0 0.00 0.07 0.00 93 1017.6
20260831115306 75 2 3.0 5.0 0.00 0.07 0.00 93 1017.6
20260831114804 75 353 2.0 3.0 0.00 0.07 0.00 93 1017.6
20260831114303 74 353 1.0 3.0 0.00 0.07 0.00 93 1017.6
20260831113303 74 353 1.0 3.0 0.00 0.07 0.00 93 1017.5
20260831112804 74 353 2.0 3.0 0.00 0.07 0.00 93 1017.5
20260831112307 74 353 2.0 5.0 0.00 0.07 0.00 93 1017.5
20260831111303 73 353 2.0 3.0 0.00 0.07 0.00 93 1017.1
20260831110803 73 353 2.0 3.0 0.00 0.07 0.00 92 1017.1
20260831110303 73 353 1.0 2.0 0.00 0.07 0.00 92 1017.1
20260831105804 73 353 1.0 2.0 0.00 0.07 0.00 92 1017.0
20260831105306 73 353 1.0 2.0 0.00 0.07 0.00 92 1017.0
20260831104803 73 353 0.0 1.0 0.00 0.07 0.00 92 1017.0
20260831104303 73 353 0.0 2.0 0.00 0.07 0.00 92 1016.9
20260831103804 73 353 1.0 2.0 0.00 0.07 0.00 92 1016.9
20260831103303 73 353 1.0 3.0 0.00 0.07 0.00 92 1016.8
20260831102804 73 353 1.0 2.0 0.00 0.07 0.00 92 1016.8
20260831102306 73 353 1.0 2.0 0.00 0.07 0.00 92 1016.8
20260831101804 73 353 2.0 5.0 0.00 0.07 0.00 92 1016.8
20260831100804 73 23 2.0 3.0 0.00 0.07 0.00 92 1016.7
20260831100304 73 318 1.0 3.0 0.00 0.07 0.00 92 1016.7
20260831095804 73 318 1.0 1.0 0.00 0.07 0.00 92 1016.7
20260831094804 73 318 2.0 3.0 0.00 0.07 0.00 92 1016.5
20260831094304 73 318 0.0 0.0 0.00 0.07 0.00 92 1016.4
20260831093805 73 318 1.0 2.0 0.00 0.07 0.00 92 1016.4
20260831093303 73 318 0.0 1.0 0.00 0.07 0.00 92 1016.3
20260831092803 73 318 0.0 1.0 0.00 0.07 0.00 92 1016.4
20260831092306 73 318 0.0 0.0 0.00 0.07 0.00 92 1016.3
20260831091803 73 318 0.0 0.0 0.00 0.07 0.00 92 1016.3
20260831091303 73 318 0.0 0.0 0.00 0.07 0.00 92 1016.3
20260831090804 73 318 0.0 0.0 0.00 0.07 0.00 92 1016.3
20260831090303 73 318 0.0 0.0 0.00 0.07 0.00 92 1016.3
20260831085306 73 318 0.0 0.0 0.00 0.07 0.00 92 1016.3
20260831084804 73 318 0.0 2.0 0.00 0.07 0.00 92 1016.4
20260831084304 73 318 1.0 2.0 0.00 0.07 0.00 92 1016.4
20260831083804 73 318 0.0 1.0 0.00 0.07 0.00 92 1016.3
20260831083303 73 318 1.0 1.0 0.00 0.07 0.00 92 1016.3
20260831082803 73 318 1.0 1.0 0.00 0.07 0.00 92 1016.3
20260831082306 73 318 1.0 3.0 0.00 0.07 0.00 92 1016.3
20260831081804 73 318 1.0 2.0 0.00 0.07 0.00 92 1016.4
20260831081304 73 318 0.0 0.0 0.00 0.07 0.00 92 1016.4
20260831080804 73 318 0.0 0.0 0.00 0.07 0.00 92 1016.3
20260831080304 73 318 0.0 0.0 0.00 0.07 0.00 92 1016.4
20260831075804 73 318 0.0 0.0 0.00 0.07 0.00 92 1016.3
20260831075306 73 318 0.0 0.0 0.00 0.07 0.00 92 1016.3
20260831073804 73 318 1.0 2.0 0.00 0.07 0.00 92 1016.5
20260831073304 73 318 0.0 3.0 0.00 0.07 0.00 92 1016.5
20260831072803 73 318 1.0 3.0 0.00 0.07 0.00 92 1016.7
20260831072306 73 318 2.0 5.0 0.00 0.07 0.00 91 1016.7
20260831071803 73 25 1.0 3.0 0.00 0.07 0.00 91 1016.6
20260831071305 73 25 1.0 2.0 0.00 0.07 0.00 91 1016.4
20260831070804 73 25 0.0 1.0 0.00 0.07 0.00 91 1016.5
20260831070304 73 25 1.0 3.0 0.00 0.07 0.00 91 1016.6
20260831065804 73 25 1.0 3.0 0.00 0.07 0.00 91 1016.6
20260831065306 73 185 0.0 2.0 0.00 0.07 0.00 91 1016.6
20260831064804 73 185 1.0 2.0 0.00 0.07 0.00 90 1016.5
20260831064304 73 185 1.0 1.0 0.00 0.07 0.00 91 1016.5
20260831063803 73 185 1.0 3.0 0.00 0.07 0.00 91 1016.5
20260831063305 73 190 1.0 3.0 0.00 0.07 0.00 90 1016.4
20260831062803 73 281 0.0 2.0 0.00 0.07 0.00 90 1016.4
20260831062305 74 281 1.0 3.0 0.00 0.07 0.00 90 1016.5
20260831061804 74 281 0.0 0.0 0.00 0.07 0.00 90 1016.5
20260831061304 74 281 0.0 0.0 0.00 0.07 0.00 90 1016.5
20260831060804 74 281 0.0 1.0 0.00 0.07 0.00 89 1016.6
20260831054804 74 236 1.0 3.0 0.00 0.07 0.00 89 1016.8
20260831054304 74 236 0.0 0.0 0.00 0.07 0.00 89 1016.9
20260831053804 75 236 0.0 3.0 0.00 0.07 0.00 89 1016.9
20260831053304 75 228 1.0 3.0 0.00 0.07 0.00 89 1017.0
20260831052804 75 198 3.0 5.0 0.00 0.07 0.00 88 1017.0
20260831051804 75 341 0.0 0.0 0.00 0.07 0.00 87 1016.8
20260831051304 75 341 0.0 1.0 0.00 0.07 0.00 87 1016.8
20260831050304 75 341 1.0 2.0 0.00 0.07 0.00 88 1016.7
20260831045803 75 341 0.0 2.0 0.00 0.07 0.00 88 1016.8
20260831045306 75 341 0.0 0.0 0.00 0.07 0.00 88 1016.8
20260831044304 75 341 0.0 2.0 0.00 0.07 0.00 87 1016.7
20260831043804 75 341 0.0 2.0 0.00 0.07 0.00 87 1016.8
20260831043304 75 341 0.0 2.0 0.00 0.07 0.00 87 1016.8
20260831042803 75 341 0.0 3.0 0.00 0.07 0.00 87 1016.8
20260831042306 75 311 1.0 3.0 0.00 0.07 0.00 87 1016.8
20260831041803 75 311 2.0 3.0 0.00 0.07 0.00 87 1016.7
20260831041304 75 312 3.0 5.0 0.00 0.07 0.00 87 1016.7
20260831040804 75 349 1.0 3.0 0.00 0.07 0.00 87 1016.8
20260831040304 75 349 2.0 3.0 0.00 0.07 0.00 87 1016.8
20260831035804 75 349 2.0 3.0 0.00 0.07 0.07 87 1016.9
20260831035306 75 335 2.0 3.0 0.00 0.07 0.07 87 1016.9
20260831034803 75 287 1.0 3.0 0.00 0.07 0.07 87 1016.9
20260831034304 76 287 0.0 0.0 0.00 0.07 0.07 87 1016.9
20260831033804 76 287 0.0 0.0 0.00 0.07 0.07 87 1016.9
20260831033304 76 287 0.0 0.0 0.00 0.07 0.07 87 1016.9
20260831032803 76 287 0.0 1.0 0.00 0.07 0.07 87 1017.0
20260831032306 76 287 0.0 1.0 0.00 0.07 0.07 87 1017.0
20260831031805 76 287 1.0 2.0 0.00 0.07 0.07 86 1017.0
20260831031304 76 287 1.0 2.0 0.00 0.07 0.07 86 1017.0
20260831030804 76 287 0.0 1.0 0.00 0.07 0.07 86 1017.1
20260831030304 76 287 0.0 2.0 0.00 0.07 0.07 86 1017.2
20260831025803 76 287 1.0 3.0 0.00 0.07 0.07 86 1017.2
20260831025306 76 245 1.0 3.0 0.00 0.07 0.07 86 1017.2
20260831024804 76 237 2.0 5.0 0.00 0.07 0.07 87 1017.3
20260831024304 76 261 1.0 3.0 0.00 0.07 0.07 87 1017.3
20260831023804 76 241 1.0 3.0 0.00 0.07 0.07 86 1017.3
20260831023304 76 251 2.0 3.0 0.00 0.07 0.07 86 1017.3
20260831021804 77 307 1.0 3.0 0.00 0.07 0.07 87 1017.4
20260831021304 77 307 2.0 3.0 0.00 0.07 0.07 87 1017.3
20260831020804 77 307 0.0 3.0 0.00 0.07 0.07 87 1017.3
20260831020304 77 289 2.0 3.0 0.00 0.07 0.07 87 1017.4
20260831015804 78 278 1.0 3.0 0.00 0.07 0.07 87 1017.3
20260831015306 78 229 1.0 3.0 0.00 0.07 0.07 86 1017.3
20260831014804 78 248 1.0 5.0 0.00 0.07 0.07 86 1017.4
20260831014304 78 255 3.0 8.0 0.01 0.07 0.07 86 1017.4
20260831013804 79 246 2.0 3.0 0.07 0.07 0.07 85 1017.3
20260831013303 79 243 1.0 2.0 0.07 0.07 0.07 85 1017.3
20260831012803 79 243 1.0 3.0 0.07 0.07 0.07 84 1017.3
20260831012306 79 211 2.0 3.0 0.07 0.07 0.07 84 1017.4
20260831011803 80 211 3.0 6.0 0.07 0.07 0.07 83 1017.2
20260831011303 81 217 3.0 3.0 0.07 0.07 0.07 82 1017.1
20260831010803 82 221 1.0 2.0 0.07 0.07 0.07 80 1017.2
20260831010303 82 298 0.0 0.0 0.07 0.07 0.07 80 1017.1
20260831005805 82 298 0.0 3.0 0.07 0.07 0.07 79 1017.2
20260831005306 82 298 0.0 2.0 0.07 0.07 0.07 78 1017.1
20260831004804 83 298 2.0 5.0 0.07 0.07 0.07 78 1017.2
20260831004304 83 337 2.0 8.0 0.06 0.06 0.06 77 1017.2
20260831003804 83 242 2.0 5.0 0.00 0.00 0.00 74 1017.1
20260831003305 83 163 2.0 5.0 0.00 0.00 0.00 74 1016.8
20260831002804 83 175 2.0 5.0 0.00 0.00 0.00 74 1016.7
20260831001803 84 177 2.0 3.0 0.00 0.00 0.00 75 1016.6
20260831001304 84 185 2.0 3.0 0.00 0.00 0.00 75 1016.7
20260831000803 84 170 3.0 5.0 0.00 0.00 0.00 74 1016.6
20260831000303 84 152 5.0 9.0 0.00 0.00 0.00 73 1016.5
20260830235804 84 147 5.0 8.0 0.00 0.00 0.00 73 1016.4
20260830235306 85 164 5.0 8.0 0.00 0.00 0.00 72 1016.3
20260830234804 85 175 2.0 3.0 0.00 0.00 0.00 71 1016.3
20260830234303 85 166 3.0 5.0 0.00 0.00 0.00 70 1016.2
20260830233804 85 175 3.0 3.0 0.00 0.00 0.00 69 1016.3
20260830233303 85 174 5.0 6.0 0.00 0.00 0.00 68 1016.3
20260830232804 85 150 2.0 5.0 0.00 0.00 0.00 67 1016.3
20260830232306 86 163 3.0 8.0 0.00 0.00 0.00 67 1016.4
20260830231804 86 187 2.0 8.0 0.00 0.00 0.00 66 1016.4
20260830230804 86 353 0.0 0.0 0.00 0.00 0.00 64 1016.5
20260830230305 87 353 0.0 0.0 0.00 0.00 0.00 64 1016.5
20260830225803 87 353 0.0 1.0 0.00 0.00 0.00 63 1016.5
20260830225305 87 353 0.0 2.0 0.00 0.00 0.00 63 1016.5
20260830224804 87 353 0.0 2.0 0.00 0.00 0.00 62 1016.5
20260830224304 88 353 1.0 2.0 0.00 0.00 0.00 61 1016.4
20260830223304 88 56 0.0 3.0 0.00 0.00 0.00 60 1016.4
20260830222804 88 330 0.0 2.0 0.00 0.00 0.00 61 1016.5
20260830221304 89 351 1.0 2.0 0.00 0.00 0.00 59 1016.3
20260830220803 89 351 2.0 3.0 0.00 0.00 0.00 60 1016.4